www.pogodaiklimat.ru

Погода и климат >> Архив погоды >> Индия >> Махараштра >> Солапур


ПОГОДА в Солапуре

  • Прогноз погоды в Солапуре
  • Монитор погоды в Солапуре

АРХИВ ПОГОДЫ в Солапуре

Время (UTC), дата Ветер
(напр.,м/с)
 
Видим.   Явления Облачность Т
(С)
Тd
(С)
f
(%)
Тe
(С)
Тes
(С)
Комфортность P
(гПа)
Po
(гПа)
Тmin
(С)
Tmax
(С)
R
(мм)
R24
(мм)
S
(см)
21 18.05 ЮЗ 1 10 км ясно +31.8 +15.3 37 +34 +34 душно 1005.0 952.5
00 19.05 штиль 0 4000 м 4/4 600 м
[Sc]
+30.6 +10.9 30 +31 +31 жарко 1005.7 952.9
03 19.05 СВ 1 10 км 1/1 600 м
[Sc]
+33.4 +15.1 33 +35 +43 душно 1007.2 954.8 +27.7
06 19.05 СВ 1 10 км ясно +40.0 +16.3 25 +42 +66 опасность
перегрева
1005.3 954.1
09 19.05 С 1 10 км 3/3 600 м
[Sc diur, vesp]
+42.6 +14.6 20 +43 +57 опасность
перегрева
1002.7 952.0
12 19.05 СЗ 1 10 км 3/3 600 м
[Sc diur, vesp]
+42.2 +13.4 18 +42 +44 опасность
перегрева
1001.1 950.5 +43.8
15 19.05 З 1 4000 м 3/3 600 м
[Sc diur, vesp]
+37.8 +14.7 25 +39 +39 очень
душно
1004.2 952.7
18 19.05 З 1 4000 м 3/0
[Ac trans]
+34.4 +12.1 26 +34 +34 очень
жарко
1005.8 953.7
21 19.05 СЗ 1 4000 м ясно +32.4 +12.7 30 +33 +33 жарко 1005.3 952.9
00 20.05 штиль 0 4000 м 3/0
[Ac trans]
+29.2 +11.6 34 +30 +30 жарко 1006.6 953.5
03 20.05 СЗ 1 10 км ясно +33.6 +14.1 31 +35 +43 душно 1007.8 955.4 +26.8
06 20.05 С 1 10 км ясно +40.4 +16.9 25 +42 +67 опасность
перегрева
1006.0 954.8
09 20.05 Ю 1 10 км 4/4 600 м
[Sc diur, vesp]
+42.6 +16.4 22 +44 +56 опасность
перегрева
1002.3 951.7
12 20.05 С 2 10 км 3/3 600 м
[Sc diur, vesp]
+42.0 +15.9 22 +43 +45 опасность
перегрева
1000.7 950.0 +44.3
15 20.05 СВ 1 4000 м 1/1 600 м
[Sc]
+38.4 +14.3 24 +39 +39 очень
душно
1002.8 951.5
18 20.05 ЮЗ 1 4000 м 5/3 600 м
[Sc Ac trans]
+36.8 +14.0 26 +38 +38 очень
душно
1004.5 952.8
21 20.05 ЮЗ 1 4000 м 4/1 600 м
[Sc Ac trans]
+33.4 +13.3 30 +34 +34 очень
жарко
1003.8 951.6
00 21.05 СВ 1 4000 м 4/1 600 м
[Sc Ac trans]
+31.8 +13.2 32 +33 +33 жарко 1004.8 952.3
03 21.05 штиль 0 10 км ясно +34.2 +14.1 30 +35 +45 очень
жарко
1005.9 953.7 +28.8
06 21.05 СЗ 1 10 км 3/3 600 м
[Sc diur, vesp]
+41.6 +17.9 25 +44 +63 опасность
перегрева
1004.1 953.2
09 21.05 СЗ 1 10 км 6/6 600 м
[Sc diur, vesp]
+43.6 +17.5 22 +46 +55 опасность
перегрева
1001.5 951.1
12 21.05 ЮВ 1 10 км гроза без осадков 6/6 600 м
[Cb cap]
+41.2 +17.3 25 +44 +45 опасность
перегрева
1000.5 949.7 +45.0
15 21.05 ЮЗ 2 4000 м гроза без осадков 8/8 600 м
[Cb cap]
+35.6 +16.9 33 +38 +38 очень
душно
1004.3 952.4
18 21.05 Ю 2 4000 м гроза без осадков 8/8 600 м
[Cb cap]
+29.4 +18.6 52 +34 +34 очень
душно
1007.9 954.8
21 21.05 Ю 1 4000 м 5/5 600 м
[Sc diur, vesp]
+28.2 +18.9 57 +33 +33 очень
душно
1007.3 954.0
00 22.05 ЮЗ 1 4000 м 5/5 600 м
[Sc]
+27.2 +19.4 62 +33 +33 очень
душно
1006.2 952.8
03 22.05 ЮВ 1 10 км 5/0
[Ci fib]
+30.4 +20.2 54 +37 +44 очень
душно
1007.3 954.4 +25.6
06 22.05 СЗ 1 10 км 4/0
[Ci fib]
+38.4 +20.3 35 +44 +68 опасность
перегрева
1004.9 953.5
09 22.05 СЗ 1 10 км 5/5 600 м
[Sc diur, vesp]
+43.0 +18.7 25 +47 +57 опасность
перегрева
1001.3 950.8
12 22.05 ЮЗ 1 10 км 4/4 600 м
[Sc diur, vesp]
+42.0 +18.0 25 +45 +47 опасность
перегрева
999.4 948.8 +44.3
15 22.05 штиль 0 4000 м гроза без осадков 5/5 600 м
[Cb cap]
+32.6 +18.3 43 +37 +37 очень
душно
1003.0 950.7 1
18 22.05 Ю 1 4000 м зарница {гроза, дождь} 5/5 600 м
[Cb cap]
+34.0 +17.5 38 +38 +38 очень
душно
1004.7 952.6 1
21 22.05 Ю 1 4000 м 5/5 600 м
[Sc diur, vesp]
+31.6 +18.1 45 +36 +36 очень
душно
1004.3 951.8 1
00 23.05 ЮЗ 1 4000 м ясно +30.6 +20.4 55 +38 +38 очень
душно
1004.6 951.9 1
03 23.05 СВ 1 10 км 3/0
[Ci fib]
+31.8 +20.1 50 +38 +47 очень
душно
1006.3 953.7 +28.6 1
06 23.05 С 2 10 км ясно +39.2 +18.4 30 +43 +66 опасность
перегрева
1004.0 952.7
09 23.05 СВ 1 10 км 5/5 600 м
[Sc diur, vesp]
+42.4 +18.2 25 +46 +56 опасность
перегрева
1000.5 949.9
12 23.05 ЮЗ 1 10 км 5/4 600 м
[Sc diur, vesp Ac trans]
+40.4 +16.9 25 +42 +44 опасность
перегрева
998.9 948.1 +44.5
15 23.05 СВ 1 4000 м 6/6 600 м
[Sc]
+37.0 +16.5 30 +39 +39 очень
душно
1001.3 949.8
18 23.05 ЮВ 2 4000 м 4/4 600 м
[Sc]
+30.8 +19.3 50 +36 +36 очень
душно
1007.4 954.6
21 23.05 ЮВ 1 4000 м 4/4 600 м
[Sc]
+28.8 +21.3 64 +36 +36 очень
душно
1006.0 952.9
00 24.05 Ю 1 4000 м 4/4 600 м
[Sc]
+29.2 +21.1 62 +37 +37 очень
душно
1007.1 954.0
03 24.05 СЗ 1 10 км 6/5 600 м
[Sc diur, vesp Ci fib]
+30.6 +22.0 60 +39 +43 очень
душно
1007.8 954.9 +27.2
06 24.05 СЗ 1 10 км 1/0
[Ci fib]
+37.2 +20.9 39 +44 +68 опасность
перегрева
1005.9 954.2
09 24.05 СЗ 1 10 км 5/3 600 м
[Sc Ci fib]
+41.6 +19.1 27 +45 +58 опасность
перегрева
1002.4 951.6
12 24.05 ЮЗ 1 10 км 6/6 600 м
[Sc diur, vesp]
+41.6 +17.4 25 +44 +45 опасность
перегрева
1000.0 949.3 +43.5
15 24.05 ЮВ 1 4000 м {морось} 6/6 600 м
[Sc]
+35.4 +19.0 38 +40 +40 очень
душно
1003.5 951.6 0.1
18 24.05 СВ 1 4000 м 4/4 600 м
[Sc]
+35.0 +17.7 36 +39 +39 очень
душно
1004.3 952.3 0.1
21 24.05 СВ 1 4000 м 3/3 600 м
[Sc]
+31.6 +18.1 45 +36 +36 очень
душно
1004.4 951.9 0.1
00 25.05 ЮВ 1 4000 м 3/3 600 м
[Sc]
+29.4 +19.0 54 +35 +35 очень
душно
1005.8 952.8 0.1
03 25.05 СВ 1 10 км ясно +31.2 +19.7 50 +37 +45 очень
душно
1007.8 955.0 +27.7 0.1
06 25.05 СВ 1 10 км 1/0
[Ci fib]
+37.6 +19.3 34 +42 +66 опасность
перегрева
1005.1 953.5
09 25.05 ЮВ 1 10 км ясно +41.8 +16.5 23 +44 +63 опасность
перегрева
1000.9 950.2
12 25.05 ЮВ 1 10 км 4/4 600 м
[Sc diur, vesp]
+42.2 +17.1 23 +44 +46 опасность
перегрева
999.1 948.6 +43.2
15 25.05 ЮЗ 1 4000 м ясно +36.6 +14.9 28 +38 +38 очень
душно
1001.5 949.9

 

Местоположение метеостанции Солапур (Махараштра, Индия): широта 17.67 долгота 75.90 высота над уровнем моря 479 м.

В архиве по умолчанию представлена погода в Солапуре за последнюю неделю. Архивные данные за месяц целиком и за предыдущие месяцы, начиная с января 2011 года, Вы можете получить, выбрав интересующий диапазон дат из раскрывающегося списка и нажав кнопку "Ввод!".


*Определитесь, кто Вы:
робот инопланетянин человек

Внимание! Время в таблицах - всемирное. Для получения местного времени необходимо прибавить поправку, которая равна 5.5 ч.

Смотрите также архив погоды в соседних городах и на ближайших метеорологических станциях:

Погода в Османабаде (Махараштра, Индия) (59 км)
Погода в Биджапуре (Карнатака, Индия) (96 км)
Погода в Джере (Махараштра, Индия) (102 км)
Погода в Гулбарге (Карнатака, Индия) (107 км)
Погода в Багалкоте (Карнатака, Индия) (109 км)
Погода в Аджере (Махараштра, Индия) (137 км)
Погода в Сангли (Махараштра, Индия) (165 км)
Погода в Бидаре (Карнатака, Индия) (175 км)
Погода в Парбхани (Махараштра, Индия) (190 км)
Погода в Ахмеднагаре (Махараштра, Индия) (195 км)

Пояснения к столбцам:

Ветер - указаны скорость ветра в м/с - средняя за 10 мин, порывы в срок и между сроками (в фигурных скобках) и направление, откуда дует ветер: С - северный, СВ - северо-восточный, В - восточный, ЮВ - юго-восточный, Ю - южный, ЮЗ - юго-западный, З - западный, СЗ - северо-западный.
Видимость - горизонтальная дальность видимости в метрах или километрах. При видимости от 1 до 10 км при отсутствии осадков обычно наблюдается дымка, при ухудшении видимости до 1 км и менее - туман. В сухую погоду видимость может ухудшаться дымом, пылью или мглою.
Явления - указаны атмосферные явления, наблюдавшиеся в срок или в последний час перед сроком; фигурными скобками обозначены явления, наблюдавшиеся между сроками (за 1-3 часа до срока); квадратными скобками обозначены град или гололедные отложения с указанием их диаметра в мм.
Облачность - указаны через наклонную черту общая и нижняя облачность в баллах и высота нижней границы облаков в метрах; квадратными скобками обозначены формы облаков: Ci - перистые, Cs - перисто-слоистые, Cc - перисто-кучевые, Ac - высококучевые, As - высокослоистые, Sc - слоисто-кучевые, Ns - слоисто-дождевые, Cu - кучевые, Cb - кучево-дождевые. Подробнее классификацию облаков см. в Атласе облаков (PDF).
T - Температура воздуха - температура, измеренная на высоте 2 м над землей.
Td - Температура точки росы - температура, при понижении до которой содержащийся в воздухе водяной пар достигнет насыщения.
f - Относительная влажность воздуха - влажноcть воздуха, измеренная на высоте 2 м над землей.
Te - Эффективная температура - температура, которую ощущает одетый по сезону человек в тени. Характеристика душности погоды. При расчете учитывается влияние влажности воздуха и скорости ветра на теплоощущения человека.
Tes - Эффективная температура на солнце - температура, которую ощущает человек, с поправкой на солнечный нагрев. Характеристика знойности погоды. Зависит от высоты солнца над горизонтом, облачности и скорости ветра. Ночью, в пасмурную погоду, а также при ветре 12 м/с и более поправка равна нулю.
P - Атмосферное давление - приведенное к уровню моря атмосферное давление.
Po - Атмосферное давление - измеренное на уровне метеостанции атмосферное давление.
Tmin - Минимальная температура - минимум температуры воздуха на высоте 2 м над землей.
Tmax - Максимальная температура - максимум температуры воздуха на высоте 2 м над землей.
R - Количество осадков - Количество выпавших осадков за период времени, мм. При наведении курсора мыши на число - период времени, за который выпало указанное количество осадков.
R24 - Количество осадков - Количество выпавших осадков за 24 часа, мм.
S - Снежный покров - Высота снежного покрова, см. При наведении курсора мыши на число - состояние снежного покрова и степень покрытия местности в баллах.